[[{"header":{"parameterUnit":"m.s-1","parameterCategory":1,"la1":30.2991,"la2":30.254,"lo1":-89.0895,"lo2":-89.0444,"dy":0.0017,"dx":0.0017,"nx":28,"ny":28,"refTime":"2024-03-22T09:00:00:Z","depth":0,"parameterNumber":2,"parameterNumberName":"U-component_of_WINDS"},"data":[0,0,0,0,0,0,0,0,0,0,0,0,0,0,0,0,0,0,0,0,0,0,0,0,0,0,0,0,0,0,0,0,0,0,0,0,0,0,0,0,0,0,0,0,0,0,0,0,0,0,0,0,0,0,0,0,0,0,-0.0803,-0.0804,0,-0.0892,-0.0893,-0.0894,-0.0912,-0.0911,-0.0911,-0.091,-0.1002,-0.1005,-0.1008,0,0,0,0,0,0,0,0,0,0,0,0,0,-0.0648,-0.0651,-0.0803,-0.0804,-0.0805,-0.0892,-0.0893,-0.0894,-0.0912,-0.0911,-0.0911,-0.091,-0.1001,-0.1004,-0.1008,0,0,0,0,0,0,0,0,0,0,0,0,0,-0.0724,-0.0652,-0.0803,-0.0825,-0.0827,-0.0892,-0.0893,-0.0895,-0.0912,-0.0911,-0.091,-0.0909,-0.0999,-0.1004,-0.1008,-0.1057,0,0,-0.1022,-0.1024,0,0,0,0,0,0,0,0,-0.072,-0.073,-0.082,-0.0823,-0.0826,-0.089,-0.0872,-0.0949,-0.0913,-0.088,-0.091,-0.0909,-0.0965,-0.0973,-0.0992,-0.1062,-0.1065,-0.1023,-0.1026,-0.1028,-0.1029,0,0,0,0,0,0,0,-0.0714,-0.0726,-0.0838,-0.0821,-0.0825,-0.083,-0.0839,-0.0887,-0.0927,-0.0883,-0.0884,-0.0895,-0.0967,-0.0987,-0.0994,-0.1067,-0.1023,-0.1027,-0.103,-0.1031,-0.1182,-0.1183,0,0,0,0,0,0,-0.0705,-0.0721,-0.0835,-0.0841,-0.0769,-0.0833,-0.0844,-0.0871,-0.0927,-0.0935,-0.0896,-0.0895,-0.098,-0.0988,-0.0997,-0.1059,-0.1028,-0.1032,-0.1035,-0.118,-0.1182,-0.1183,0,0,0,0,0,0,-0.0702,-0.0715,-0.0832,-0.0782,-0.0797,-0.0837,-0.0867,-0.0873,-0.0893,-0.0936,-0.0944,-0.0909,-0.0979,-0.0991,-0.1042,-0.1062,-0.1034,-0.1038,-0.1179,-0.1181,-0.1183,-0.1182,0,0,0,0,0,0,-0.0697,-0.0714,-0.0733,-0.0782,-0.0799,-0.0876,-0.0868,-0.0875,-0.0901,-0.0902,-0.0951,-0.0958,-0.0979,-0.1035,-0.1047,-0.1068,-0.1042,-0.1177,-0.118,-0.1182,-0.1181,-0.1184,-0.1187,0,0,0,0,0,-0.0692,-0.0729,-0.0734,-0.0748,-0.0824,-0.0877,-0.0887,-0.091,-0.0903,-0.0922,-0.095,-0.0957,-0.1058,-0.104,-0.1054,-0.1077,-0.1176,-0.1179,-0.1182,-0.1179,-0.1183,-0.1186,0,0,0,0,0,0,-0.0682,-0.0736,-0.0742,-0.0796,-0.0832,-0.088,-0.0905,-0.0914,-0.0952,-0.0951,-0.0978,-0.0989,-0.104,-0.1063,-0.1043,-0.1127,-0.1117,-0.1122,-0.111,-0.1114,-0.1117,-0.1111,-0.1046,0,0,0,0,0,-0.0686,-0.0724,-0.0769,-0.0813,-0.0831,-0.0865,-0.0888,-0.0903,-0.0941,-0.0956,-0.0988,-0.1024,-0.1064,-0.109,-0.1129,-0.1183,-0.1195,-0.1206,-0.1208,-0.1211,-0.1216,-0.1247,-0.1252,-0.1192,-0.1192,-0.1192,0,0,-0.0695,-0.073,-0.0752,-0.0812,-0.0841,-0.088,-0.0877,-0.0919,-0.0948,-0.0963,-0.1014,-0.1038,-0.108,-0.1133,-0.1158,-0.1154,-0.1234,-0.1214,-0.1216,-0.122,-0.125,-0.1256,-0.1261,-0.1194,-0.1194,-0.1194,0,0,-0.0732,-0.0762,-0.0802,-0.0831,-0.0875,-0.0897,-0.0907,-0.0953,-0.097,-0.1021,-0.1033,-0.1068,-0.1137,-0.1167,-0.1191,-0.1238,-0.1246,-0.125,-0.1266,-0.1295,-0.13,-0.1305,-0.1323,-0.1329,-0.1254,-0.1254,-0.1254,0,-0.0738,-0.0798,-0.0821,-0.0862,-0.0889,-0.0903,-0.0944,-0.0971,-0.1026,-0.1044,-0.1038,-0.1124,-0.1154,-0.1214,-0.1226,-0.1244,-0.1256,-0.1245,-0.1298,-0.1302,-0.1307,-0.1324,-0.1331,-0.1254,-0.1254,-0.1254,-0.1254,0,-0.0803,-0.0844,-0.0871,-0.0924,-0.0953,-0.0994,-0.1023,-0.105,-0.1062,-0.1084,-0.1137,-0.1172,-0.1219,-0.1234,-0.1246,-0.1297,-0.1293,-0.1292,-0.1283,-0.1312,-0.1329,-0.1336,-0.1255,-0.1255,-0.1255,-0.1255,0,0,-0.0839,-0.0903,-0.0913,-0.0937,-0.0986,-0.1018,-0.1059,-0.1105,-0.1128,-0.1164,-0.12,-0.1257,-0.1256,-0.1284,-0.1299,-0.1325,-0.1361,-0.1321,-0.1322,-0.1328,-0.142,-0.1422,-0.1429,-0.1366,-0.1367,-0.1368,-0.1417,0,-0.0883,-0.0957,-0.0979,-0.1042,-0.108,-0.1094,-0.113,-0.1164,-0.1186,-0.1221,-0.1245,-0.1286,-0.1282,-0.1298,-0.1324,-0.1351,-0.138,-0.1348,-0.14,-0.1402,-0.1391,-0.1438,-0.144,-0.1484,-0.1423,-0.1425,-0.1425,0,-0.0945,-0.0983,-0.1049,-0.1094,-0.1111,-0.1143,-0.1187,-0.122,-0.1259,-0.1273,-0.1303,-0.1316,-0.1359,-0.1346,-0.1406,-0.1384,-0.1406,-0.1422,-0.1425,-0.1432,-0.1417,-0.1448,-0.1498,-0.1506,-0.1436,-0.1435,-0.1434,0,-0.0965,-0.1033,-0.1082,-0.1102,-0.1155,-0.1177,-0.12,-0.1237,-0.1264,-0.1301,-0.1319,-0.1361,-0.1384,-0.1417,-0.1441,-0.1428,-0.1499,-0.1488,-0.1513,-0.1512,-0.1529,-0.1528,-0.1586,-0.154,-0.154,-0.154,-0.154,0,-0.1014,-0.1054,-0.1092,-0.1122,-0.1168,-0.1192,-0.1237,-0.126,-0.1293,-0.1328,-0.1342,-0.1374,-0.1403,-0.1439,-0.1458,-0.1506,-0.1516,-0.1529,-0.1534,-0.1529,-0.1527,-0.1545,-0.1543,-0.1542,-0.1541,-0.1541,-0.1541,0,-0.1045,-0.1072,-0.1126,-0.1172,-0.1184,-0.1216,-0.1255,-0.1284,-0.1306,-0.135,-0.1362,-0.1396,-0.144,-0.1466,-0.1521,-0.1534,-0.1587,-0.1589,-0.1574,-0.1576,-0.1601,-0.1599,-0.1674,-0.1685,-0.163,-0.1631,-0.1631,0,-0.1075,-0.1107,-0.1155,-0.118,-0.1203,-0.1242,-0.1269,-0.1293,-0.1321,-0.1367,-0.1391,-0.1435,-0.1472,-0.154,-0.157,-0.1612,-0.1617,-0.164,-0.1624,-0.1618,-0.1619,-0.1618,-0.1622,-0.1644,-0.1644,-0.1645,-0.1645,0,-0.1126,-0.1137,-0.1175,-0.1218,-0.125,-0.1284,-0.1319,-0.1338,-0.1369,-0.1398,-0.1443,-0.1471,-0.1527,-0.1571,-0.1616,-0.1639,-0.1648,-0.165,-0.1658,-0.1654,-0.1645,-0.1652,-0.1583,-0.1648,-0.1648,-0.1648,-0.1648,-0.1648,-0.1159,-0.1188,-0.1226,-0.1268,-0.1297,-0.1329,-0.1359,-0.1385,-0.1422,-0.147,-0.1482,-0.1529,-0.1566,-0.1627,-0.1651,-0.1688,-0.1685,-0.1696,-0.17,-0.1703,-0.1704,-0.1637,-0.1696,-0.1696,-0.1696,-0.1696,-0.1696,0,-0.1211,-0.1237,-0.1275,-0.1323,-0.1356,-0.136,-0.1399,-0.1426,-0.1467,-0.1501,-0.1537,-0.1588,-0.1631,-0.1664,-0.1707,-0.173,-0.1735,-0.1741,-0.1741,-0.1746,-0.1704,-0.1693,-0.1736,-0.1736,-0.1736,-0.1736,-0.1736,-0.1736,-0.1243,-0.1292,-0.1308,-0.1372,-0.1397,-0.1443,-0.1465,-0.1494,-0.1522,-0.1579,-0.1614,-0.1635,-0.1669,-0.1715,-0.1754,-0.1762,-0.1778,-0.1783,-0.1793,-0.1753,-0.1749,-0.1745,-0.1735,-0.1786,-0.1786,-0.1832,-0.1833,-0.1833]},{"header":{"parameterUnit":"m.s-1","parameterCategory":1,"la1":30.2991,"la2":30.254,"lo1":-89.0895,"lo2":-89.0444,"dy":0.0017,"dx":0.0017,"nx":28,"ny":28,"refTime":"2024-03-22T09:00:00:Z","depth":0,"parameterNumber":3,"parameterNumberName":"V-component_of_WINDS"},"data":[0,0,0,0,0,0,0,0,0,0,0,0,0,0,0,0,0,0,0,0,0,0,0,0,0,0,0,0,0,0,0,0,0,0,0,0,0,0,0,0,0,0,0,0,0,0,0,0,0,0,0,0,0,0,0,0,0,0,-5.9706,-5.9709,0,-5.9968,-5.9971,-5.9974,-5.9963,-5.996,-5.9956,-5.9953,-6.0218,-6.0228,-6.0239,0,0,0,0,0,0,0,0,0,0,0,0,0,-5.9194,-5.9203,-5.9706,-5.9709,-5.9712,-5.9968,-5.9971,-5.9975,-5.9964,-5.996,-5.9955,-5.9951,-6.0215,-6.0227,-6.024,0,0,0,0,0,0,0,0,0,0,0,0,0,-5.9432,-5.9206,-5.9705,-5.9738,-5.9743,-5.9967,-5.9971,-5.9976,-5.9965,-5.9959,-5.9954,-5.9949,-6.0211,-6.0226,-6.0241,-6.0449,0,0,-6.0289,-6.0296,0,0,0,0,0,0,0,0,-5.9418,-5.9451,-5.973,-5.9736,-5.9743,-5.9927,-5.9888,-6.0134,-5.9966,-5.9881,-5.9953,-5.9946,-6.0126,-6.0148,-6.0209,-6.0461,-6.0473,-6.0291,-6.03,-6.0307,-6.0312,0,0,0,0,0,0,0,-5.9402,-5.9439,-5.9809,-5.9734,-5.9742,-5.9739,-5.9766,-5.9935,-6.0031,-5.9888,-5.9888,-5.9919,-6.0128,-6.0194,-6.0215,-6.0476,-6.029,-6.0304,-6.0314,-6.032,-6.0912,-6.0918,0,0,0,0,0,0,-5.9379,-5.9426,-5.9801,-5.9817,-5.9564,-5.9752,-5.9783,-5.9874,-6.0029,-6.0047,-5.9923,-5.9918,-6.017,-6.0197,-6.0225,-6.0479,-6.0307,-6.0322,-6.0331,-6.0906,-6.0914,-6.0921,0,0,0,0,0,0,-5.9368,-5.9412,-5.979,-5.9622,-5.967,-5.9767,-5.9868,-5.9882,-5.9948,-6.0056,-6.0073,-5.9974,-6.0167,-6.0203,-6.0394,-6.0488,-6.0329,-6.0343,-6.0899,-6.0909,-6.0917,-6.0988,0,0,0,0,0,0,-5.9353,-5.9408,-5.9489,-5.9624,-5.9679,-5.9956,-5.9874,-5.9891,-5.9975,-5.997,-6.0107,-6.0125,-6.0165,-6.037,-6.0409,-6.0507,-6.0356,-6.0891,-6.0903,-6.0914,-6.0978,-6.0999,-6.1017,0,0,0,0,0,-5.9335,-5.9498,-5.9493,-5.9538,-5.9781,-5.9962,-5.9993,-6.0037,-5.9983,-6.0064,-6.0134,-6.012,-6.0471,-6.039,-6.0434,-6.0537,-6.0885,-6.09,-6.0913,-6.0969,-6.0995,-6.1017,0,0,0,0,0,0,-5.937,-5.9516,-5.9512,-5.9724,-5.9831,-5.9959,-6.0064,-6.0063,-6.0186,-6.0176,-6.0224,-6.0255,-6.0447,-6.0511,-6.0418,-6.0747,-6.0671,-6.0694,-6.0698,-6.0724,-6.0743,-6.0724,-6.0369,0,0,0,0,0,-5.9403,-5.9538,-5.9657,-5.9832,-5.9886,-5.9966,-6.0046,-6.0071,-6.0183,-6.0228,-6.0311,-6.042,-6.0554,-6.0642,-6.0772,-6.0986,-6.1017,-6.1079,-6.1099,-6.1114,-6.1135,-6.1254,-6.1284,-6.0967,-6.0967,-6.0967,0,0,-5.9472,-5.9568,-5.965,-5.9842,-5.9928,-6.0066,-6.0004,-6.0153,-6.0256,-6.025,-6.0437,-6.0501,-6.0625,-6.083,-6.0923,-6.0889,-6.1228,-6.1132,-6.1144,-6.1156,-6.1272,-6.1301,-6.1328,-6.0977,-6.0975,-6.0973,0,0,-5.9668,-5.9754,-5.991,-5.9997,-6.0128,-6.018,-6.0217,-6.0347,-6.039,-6.0578,-6.0577,-6.0699,-6.093,-6.1019,-6.1095,-6.1324,-6.1317,-6.1365,-6.1468,-6.1583,-6.1608,-6.1631,-6.1714,-6.1744,-6.1384,-6.1385,-6.1385,0,-5.9737,-5.9946,-5.999,-6.0141,-6.0225,-6.0227,-6.0385,-6.0467,-6.0633,-6.0692,-6.065,-6.094,-6.1024,-6.125,-6.1306,-6.1366,-6.1411,-6.1351,-6.1601,-6.1624,-6.1646,-6.1726,-6.1757,-6.139,-6.1389,-6.1389,-6.1388,0,-6.0025,-6.017,-6.028,-6.0443,-6.0539,-6.0693,-6.0759,-6.0851,-6.0867,-6.0923,-6.1114,-6.1215,-6.1365,-6.142,-6.1436,-6.1649,-6.1623,-6.1591,-6.1516,-6.168,-6.1757,-6.1788,-6.1397,-6.1395,-6.1394,-6.1393,0,0,-6.0253,-6.0437,-6.0477,-6.0551,-6.0695,-6.0808,-6.0961,-6.111,-6.1189,-6.1302,-6.1433,-6.1628,-6.1599,-6.1685,-6.1711,-6.1812,-6.199,-6.1768,-6.1772,-6.1807,-6.2231,-6.2256,-6.2291,-6.1985,-6.1991,-6.1996,-6.2221,0,-6.0466,-6.074,-6.0783,-6.1023,-6.1158,-6.1161,-6.1295,-6.1397,-6.1454,-6.1576,-6.1636,-6.1775,-6.1726,-6.1778,-6.1878,-6.1947,-6.2076,-6.1931,-6.2107,-6.2113,-6.2078,-6.2331,-6.2358,-6.2566,-6.2251,-6.2256,-6.226,0,-6.0751,-6.0875,-6.1129,-6.1256,-6.1314,-6.1433,-6.1574,-6.169,-6.1806,-6.184,-6.1935,-6.195,-6.2108,-6.2025,-6.2244,-6.2145,-6.2218,-6.2263,-6.2272,-6.2292,-6.2198,-6.2359,-6.2634,-6.2666,-6.2307,-6.2303,-6.23,0,-6.0894,-6.1123,-6.1306,-6.1368,-6.152,-6.1605,-6.1672,-6.1782,-6.1869,-6.199,-6.2047,-6.2185,-6.2261,-6.2367,-6.2418,-6.2352,-6.2634,-6.2555,-6.2667,-6.2666,-6.2728,-6.2724,-6.302,-6.2772,-6.2772,-6.2771,-6.277,0,-6.1129,-6.1285,-6.1372,-6.1485,-6.1659,-6.1707,-6.1878,-6.1942,-6.2041,-6.2165,-6.2175,-6.2291,-6.235,-6.2475,-6.2515,-6.2691,-6.2725,-6.2756,-6.2766,-6.2757,-6.2754,-6.2808,-6.2796,-6.2779,-6.2778,-6.2776,-6.2774,0,-6.132,-6.1384,-6.1583,-6.1711,-6.1747,-6.187,-6.1979,-6.2088,-6.2142,-6.23,-6.2339,-6.2425,-6.2573,-6.2633,-6.2814,-6.2841,-6.3044,-6.3041,-6.3006,-6.3009,-6.3119,-6.3108,-6.3462,-6.3511,-6.3229,-6.3231,-6.3233,0,-6.1466,-6.1587,-6.1727,-6.1812,-6.1882,-6.2018,-6.2107,-6.2157,-6.2249,-6.2391,-6.2483,-6.263,-6.2752,-6.2987,-6.3065,-6.3203,-6.3205,-6.3319,-6.3226,-6.3214,-6.3209,-6.3203,-6.3215,-6.3337,-6.334,-6.3342,-6.3344,0,-6.172,-6.1746,-6.1875,-6.2015,-6.2121,-6.2234,-6.2343,-6.2411,-6.2479,-6.2581,-6.2733,-6.2827,-6.3012,-6.3159,-6.3302,-6.3369,-6.3369,-6.3373,-6.3407,-6.34,-6.3376,-6.3393,-6.3055,-6.3365,-6.3363,-6.3361,-6.336,-6.336,-6.1895,-6.2003,-6.2119,-6.2262,-6.235,-6.2452,-6.2561,-6.263,-6.2758,-6.2913,-6.2934,-6.3097,-6.321,-6.3402,-6.3475,-6.3603,-6.3573,-6.3622,-6.3634,-6.3646,-6.3654,-6.3354,-6.3628,-6.3628,-6.3627,-6.3627,-6.3627,0,-6.2151,-6.2226,-6.2357,-6.2511,-6.2623,-6.2613,-6.2733,-6.2828,-6.2972,-6.3077,-6.3197,-6.3371,-6.3514,-6.3603,-6.3746,-6.3831,-6.3834,-6.3867,-6.3862,-6.3878,-6.3671,-6.3629,-6.3862,-6.3862,-6.3862,-6.3862,-6.3862,-6.3862,-6.2298,-6.248,-6.252,-6.2745,-6.2819,-6.298,-6.305,-6.3144,-6.3229,-6.3424,-6.3543,-6.36,-6.3699,-6.385,-6.398,-6.4002,-6.4055,-6.4091,-6.4111,-6.3917,-6.3893,-6.3869,-6.383,-6.4101,-6.4102,-6.4308,-6.431,-6.4311]}]]